Change the Weather History Date:

Sunday, July 7, 2013

  Actual Average Record
Temperature  
Mean Temperature 82 °F -  
Max Temperature 91 °F 83 °F 102 °F (1993)
Min Temperature 73 °F 59 °F 46 °F (1979)
Cooling Degree Days 17    
Growing Degree Days 32 (Base 50)    
Moisture  
Dew Point 72 °F    
Average Humidity 75    
Maximum Humidity 90    
Minimum Humidity 50    
Precipitation  
Precipitation 0.13 in - - ()
Sea Level Pressure  
Sea Level Pressure 30.00 in    
Wind  
Wind Speed 4 mph (SSW)    
Max Wind Speed 14 mph    
Max Gust Speed 18 mph    
Visibility 8 miles    
Events Rain , Thunderstorm    
Averages and records for this station are not official NWS values.
T = Trace of Precipitation, MM = Missing Value Source: NWS Daily Summary

Daily Weather History Graph

Daily Weather History Graph

Search for Another Location

Airport or City:

Trip Planner

Search our weather history database for the weather conditions in past years. The results will help you decide how hot, cold, wet, or windy it might be!

Date:

Astronomy

Jul. 07, 2013 Rise Set
Actual Time 5:27 AM EDT 8:29 PM EDT
Civil Twilight 4:54 AM EDT 9:02 PM EDT
Nautical Twilight 4:11 AM EDT 9:45 PM EDT
Astronomical Twilight 3:21 AM EDT 10:35 PM EDT
Moon 5:02 AM EDT (7/7) 7:50 PM EDT (7/7)
Length of Visible Light 16h 08m
Length of Day
15h 01m
Waning Crescent, 0% of the Moon is Illuminated
Jul 7
Waning Crescent
Jul 8
New
Jul 15
First Quarter
Jul 22
Full
Jul 29
Last Quarter

Hourly Weather History & Observations

Time (EDT) Temp. Heat Index Dew Point Humidity Pressure Visibility Wind Dir Wind Speed Gust Speed Precip Events Conditions
12:53 AM 75.0 °F - 71.1 °F 87% 30.06 in 6.0 mi Calm Calm - N/A   Clear
1:53 AM 73.0 °F - 70.0 °F 90% 30.06 in 6.0 mi Calm Calm - N/A   Clear
2:53 AM 73.0 °F - 70.0 °F 90% 30.06 in 5.0 mi Calm Calm - N/A   Clear
3:53 AM 73.0 °F - 70.0 °F 90% 30.05 in 7.0 mi Calm Calm - N/A   Mostly Cloudy
4:53 AM 73.0 °F - 70.0 °F 90% 30.05 in 6.0 mi Calm Calm - N/A   Scattered Clouds
5:53 AM 73.9 °F - 70.0 °F 87% 30.05 in 6.0 mi Calm Calm - N/A   Clear
6:53 AM 78.1 °F - 71.1 °F 79% 30.05 in 9.0 mi West 3.5 mph - N/A   Clear
7:53 AM 81.0 °F 85.2 °F 72.0 °F 74% 30.06 in 10.0 mi WSW 5.8 mph - N/A   Clear
8:53 AM 82.9 °F 88.0 °F 72.0 °F 69% 30.05 in 10.0 mi WSW 5.8 mph - N/A   Clear
9:53 AM 84.9 °F 91.4 °F 73.0 °F 67% 30.04 in 10.0 mi SSW 5.8 mph - N/A   Clear
10:53 AM 86.0 °F 93.8 °F 73.9 °F 67% 30.04 in 10.0 mi WSW 6.9 mph - N/A   Partly Cloudy
11:53 AM 88.0 °F 95.6 °F 73.0 °F 61% 30.02 in 10.0 mi Variable 4.6 mph - N/A   Partly Cloudy
12:53 PM 89.1 °F 96.0 °F 72.0 °F 57% 30.01 in 10.0 mi WSW 6.9 mph - N/A   Partly Cloudy
1:53 PM 89.1 °F 93.7 °F 69.1 °F 52% 29.99 in 10.0 mi South 9.2 mph - N/A   Partly Cloudy
2:53 PM 91.0 °F 96.6 °F 70.0 °F 50% 29.97 in 10.0 mi WSW 9.2 mph 16.1 mph N/A   Clear
3:53 PM 90.0 °F 96.4 °F 71.1 °F 54% 29.95 in 10.0 mi SSW 12.7 mph 18.4 mph N/A   Clear
4:53 PM 88.0 °F 94.7 °F 72.0 °F 59% 29.95 in 10.0 mi South 5.8 mph - N/A   Clear
5:53 PM 88.0 °F 94.7 °F 72.0 °F 59% 29.94 in 10.0 mi South 8.1 mph - N/A   Clear
6:20 PM 84.2 °F 92.3 °F 75.2 °F 74% 29.96 in 3.0 mi South 13.8 mph 17.3 mph N/A Rain , Thunderstorm Light Thunderstorms and Rain
6:22 PM 84.2 °F 92.3 °F 75.2 °F 74% 29.95 in 1.8 mi South 13.8 mph 17.3 mph N/A Rain , Thunderstorm Heavy Thunderstorms and Rain
6:30 PM 82.4 °F 89.5 °F 75.2 °F 79% 29.96 in 3.0 mi South 9.2 mph - N/A Rain , Thunderstorm Light Thunderstorms and Rain
6:53 PM 82.0 °F 87.9 °F 73.9 °F 76% 29.96 in 10.0 mi Calm Calm - N/A   Mostly Cloudy
7:53 PM 82.0 °F 87.9 °F 73.9 °F 76% 29.94 in 9.0 mi South 5.8 mph - N/A   Clear
8:53 PM 78.1 °F - 75.0 °F 90% 29.97 in 8.0 mi SW 3.5 mph - N/A   Clear
9:53 PM 77.0 °F - 73.9 °F 90% 29.98 in 8.0 mi WSW 3.5 mph - N/A   Clear
10:53 PM 77.0 °F - 73.9 °F 90% 29.95 in 6.0 mi SW 6.9 mph - 0.00 in   Partly Cloudy
11:53 PM 77.0 °F - 71.1 °F 82% 29.97 in 10.0 mi WSW 4.6 mph - 0.00 in   Clear